Flag for Turkey Weather past 2 weeks in Izmir, Turkey

55 °F

Scattered clouds.

Feels Like: 52 °F
Forecast: 38 / 61 °F
Wind: 14 mph from Northwest

Location: Izmir / Adnan Menderes

Current Time: Nov 30, 2015 at 3:56:27 PM

Latest Report: Nov 30, 2015 at 3:20 PM

Visibility: N/A

Pressure: 30.12 "Hg

Humidity: 55%

Dew point: 39 °F

Location of IzmirLocation

Historic Weather in Izmir — Graph


Izmir temperature yesterday

Maximum temperature yesterday: 63 °F (at 12:20 PM)
Minimum temperature yesterday: 45 °F (at 4:20 AM)
Average temperature yesterday: 53 °F

Past Weeks' High & Low Weather Summary

High72 °F (Nov 20, 1:20 PM)100% (Nov 24, 2:50 AM)30.24 "Hg (Nov 24, 2:50 AM)
Low39 °F (Nov 20, 4:50 AM)33% (Nov 20, 2:20 PM)29.59 "Hg (Nov 26, 1:50 AM)
Average59 °F73%29.98 "Hg
* Reported Nov 15 2:20 PM — Nov 30 2:50 PM, Izmir, Weather by CustomWeather, © 2015

Note: Actual official high and low records may vary slightly from our data, if they occured in-between our weather recording intervals... More about our weather records


Izmir weather history for previous 24 hours

Time TempWeatherWind HumidityBarometerVisibility
2:50 PM
Mon, Nov 30
55 °FScattered clouds.15 mph51%30.12 "HgN/A
2:20 PM55 °FScattered clouds.13 mph55%30.09 "HgN/A
1:50 PM55 °FScattered clouds.15 mph55%30.12 "HgN/A
1:20 PM55 °FScattered clouds.16 mph55%30.12 "HgN/A
12:50 PM55 °FScattered clouds.14 mph55%30.12 "HgN/A
12:20 PM57 °FScattered clouds.15 mph55%30.12 "HgN/A
11:50 AM55 °FScattered clouds.14 mph59%30.12 "HgN/A
11:20 AM55 °FScattered clouds.13 mph63%30.15 "HgN/A
10:50 AM54 °FScattered clouds.12 mph67%30.15 "HgN/A
10:20 AM54 °FScattered clouds.13 mph67%30.15 "HgN/A
9:50 AM54 °FScattered clouds.13 mph72%30.15 "HgN/A
8:50 AM50 °FScattered clouds.10 mph94%30.12 "Hg4 mi
8:20 AM48 °FFog.8 mph94%30.12 "Hg3 mi
7:50 AM46 °FFog.5 mph93%30.09 "Hg2 mi
7:20 AM48 °FFog.5 mph94%30.09 "HgN/A
6:50 AM45 °FFog.5 mph93%30.09 "Hg2 mi
6:20 AM46 °FFog.2 mph100%30.09 "Hg2 mi
5:20 AM46 °FFog.2 mph93%30.07 "Hg3 mi
4:50 AM46 °FFog.1 mph93%30.07 "Hg2 mi
4:20 AM48 °FFog.5 mph94%30.07 "Hg3 mi
3:50 AM48 °FSprinkles. Fog.2 mph94%30.07 "Hg2 mi
2:50 AM46 °FFog.2 mph93%30.07 "Hg3 mi
2:20 AM46 °FFog.5 mph93%30.07 "Hg3 mi
1:50 AM46 °FFog.7 mph93%30.07 "Hg3 mi
12:50 AM50 °FClear.5 mph88%30.07 "Hg4 mi
12:20 AM50 °FClear.3 mph88%30.07 "Hg4 mi
11:50 PM
Sun, Nov 29
52 °FPartly cloudy.3 mph88%30.07 "Hg4 mi
11:20 PM54 °FPartly cloudy.6 mph82%30.07 "Hg4 mi
10:50 PM54 °FPartly cloudy.5 mph88%30.07 "HgN/A
10:20 PM54 °FPartly cloudy.5 mph82%30.07 "HgN/A
9:50 PM54 °FPartly cloudy.1 mph77%30.07 "HgN/A
9:20 PM54 °FPartly cloudy.5 mph82%30.07 "HgN/A
8:50 PM54 °FPartly cloudy.6 mph82%30.07 "HgN/A
8:20 PM54 °FPartly cloudy.6 mph82%30.04 "HgN/A
7:50 PM54 °FPartly cloudy.6 mph82%30.04 "HgN/A
7:20 PM55 °FPartly cloudy.8 mph77%30.04 "HgN/A
6:50 PM55 °FPartly cloudy.9 mph72%30.04 "HgN/A
6:20 PM55 °FPartly cloudy.9 mph72%30.04 "HgN/A
5:50 PM54 °FPassing clouds.10 mph82%30.04 "HgN/A
5:20 PM55 °FPassing clouds.15 mph72%30.04 "HgN/A
4:50 PM57 °FPartly sunny.14 mph67%30.04 "HgN/A
4:20 PM59 °FPartly sunny.8 mph63%30.04 "HgN/A
3:50 PM59 °FPartly sunny.5 mph68%30.04 "HgN/A
3:20 PM59 °FPartly sunny.7 mph63%30.04 "HgN/A
Weather by CustomWeather, © 2015

See weather overviewHow to use our weather pages